#timestamp,LO_Frequency,Hit,StdDev 
1538892015.8,286047001.0,N
1538892035.6,286047000.3,N
1538892055.4,286047000.4,N
1538892075.3,286046998.5,N
1538892095.1,286046999.1,N
1538892115.8,286046998.6,N
1538892135.7,286046999.4,N
1538892155.5,286046999.1,N
1538892175.4,286046999.2,N
1538892195.2,286046999.0,N
1538892215.0,286046999.6,N
1538892215.9,286046999.6,N
1538892235.8,286046999.0,N
1538892255.6,286046996.5,Y
1538892275.5,286046999.3,P
1538892295.3,286046998.5,P
1538892315.1,286046999.0,N
1538892335.9,286046999.3,N
1538892355.7,286046998.8,Y
1538892375.5,286046998.5,P
1538892395.4,286047001.2,P
1538892415.2,286046998.2,N
1538892435.0,286046998.1,N
1538892436.0,286046998.1,N
1538892455.8,286047000.8,N
1538892475.6,286047000.5,N
1538892495.5,286047000.4,N
1538892515.3,286047000.8,N
1538892535.1,286046998.8,N
1538892555.9,286047001.2,N
1538892575.7,286047000.9,N
1538892595.5,286047000.5,N
1538892615.4,286046998.3,N
1538892635.2,286047001.1,N
1538892655.1,286047000.9,N
1538892656.0,286047000.9,N
1538892675.8,286047001.1,N
1538892695.6,286047000.7,N
1538892715.5,286047000.6,N
1538892735.3,286047001.1,N
1538892755.1,286047000.7,N
1538892775.9,286046998.8,N
1538892795.7,286046998.1,N
1538892815.6,286046998.7,N
1538892835.4,286046998.6,N
1538892855.2,286046998.2,N
1538892875.1,286047001.2,N
1538892876.0,286047001.2,N
1538892895.8,286046998.8,N
1538892915.6,286046998.6,N
1538892935.5,286046999.1,N
1538892955.3,286046999.1,N
1538892975.2,286046998.9,N
1538892995.9,286046998.5,N
1538893015.7,286046999.2,N
1538893035.6,286046996.5,Y
1538893055.4,286046995.0,P
1538893075.2,286046997.8,N
1538893095.1,286046996.6,N
1538893096.0,286046996.6,N
1538893115.8,286046996.5,N
1538893135.7,286046997.4,N
1538893155.5,286046997.8,N
1538893175.3,286046994.9,Y
1538893195.2,286046998.5,P
1538893215.0,286047001.0,N
1538893215.9,286047001.0,N
1538893235.8,286047001.1,N
1538893255.6,286046998.8,N
1538893275.4,286046998.2,N
1538893295.3,286046998.5,N
1538893315.1,286046998.3,N
1538893335.8,286047001.1,N
1538893355.7,286047001.2,N
1538893375.5,286046998.5,N
1538893395.3,286046998.7,N
1538893415.2,286046998.3,N
1538893435.0,286046998.9,N
1538893435.9,286046998.9,N
1538893455.8,286046999.9,N
1538893475.6,286047000.9,N
1538893495.4,286047000.0,N
1538893515.3,286047000.6,N
1538893535.1,286047000.0,N
1538893555.9,286047000.9,N
1538893575.7,286047000.9,N
1538893595.5,286046998.2,N
1538893615.4,286047001.2,N
1538893635.2,286047001.2,N
1538893655.0,286046998.5,N
1538893655.9,286046998.5,N
1538893675.8,286047000.3,N
1538893695.6,286047000.5,N
1538893715.5,286047000.2,N
1538893735.3,286047002.4,N
1538893755.1,286047002.7,N
1538893775.9,286047002.7,N
1538893795.7,286047002.6,N
1538893815.5,286047002.0,N
1538893835.4,286047001.9,N
1538893855.2,286047001.9,N
1538893875.0,286047002.5,N
1538893875.9,286047002.5,N
1538893895.8,286046999.7,N
1538893915.6,286047002.2,N
1538893935.5,286047001.6,N
1538893955.3,286047001.7,N
1538893975.1,286047001.4,N
1538893995.9,286047003.6,N
1538894015.7,286047001.3,N
1538894035.5,286047002.0,N
1538894055.4,286047001.7,N
1538894075.2,286047002.2,N
1538894095.1,286047002.6,N
1538894096.0,286047002.6,N
1538894115.8,286047002.1,N
1538894135.6,286047002.1,N
1538894155.5,286047002.8,N
1538894175.3,286047002.6,N
1538894195.1,286047002.8,N
1538894215.9,286047002.5,N
1538894235.7,286047002.7,Y
1538894255.6,286047000.6,P
1538894275.4,286046999.8,N
1538894295.2,286047000.9,N
1538894315.1,286047000.3,N
1538894316.0,286047000.3,N
1538894335.8,286047000.9,N
1538894355.2,286047000.1,N
1538894375.1,286047000.2,N
1538894376.0,286047000.2,N
1538894395.8,286046999.8,N
1538894415.6,286047002.8,Y
1538894435.6,286047002.6,P
1538894455.4,286047002.4,N
1538894475.3,286047002.2,N
1538894495.1,286046999.8,N
1538894496.0,286046999.8,N
1538894515.8,286047002.5,N
1538894535.7,286047002.4,N
1538894555.5,286047002.0,N
1538894575.3,286047001.7,N
1538894595.2,286047001.4,N
1538894615.0,286047004.1,Y
1538894615.9,286047004.1,P
1538894635.8,286047002.5,N
1538894655.6,286047000.2,N
1538894675.4,286047000.1,N
1538894695.3,286047000.8,N
1538894715.1,286047002.6,N
1538894735.8,286046999.8,N
1538894755.7,286047000.3,N
1538894775.5,286047000.1,N
1538894795.4,286047002.8,N
1538894815.2,286047002.4,N
1538894835.0,286046999.7,N
1538894835.9,286046999.7,N
1538894855.8,286047000.1,N
1538894875.6,286047000.1,N
1538894895.4,286047002.6,N
1538894915.3,286047001.4,N
1538894935.1,286047004.0,Y
1538894955.9,286047000.9,P
1538894975.7,286046999.8,N
1538894995.5,286047002.4,P
1538895015.4,286047002.3,N
1538895035.2,286047002.8,N
1538895085.1,286047000.2,E
1538895095.0,286046999.7,N
1538895095.9,286046999.7,P
1538895115.7,286047000.3,P
1538895135.6,286047000.0,N
1538895155.4,286047000.9,Y
1538895175.3,286047000.5,P
1538895195.1,286046999.9,N
1538895196.0,286046999.9,N
1538895215.8,286046999.7,N
1538895235.7,286047002.4,Y
1538895255.5,286047002.3,P
1538895275.4,286047002.6,N
1538895295.2,286047000.0,N
1538895315.0,286047002.7,N
1538895315.9,286047002.7,N
1538895335.8,286046999.9,N
1538895355.6,286046999.9,N
1538895375.6,286047000.9,N
1538895395.4,286047002.7,N
1538895415.2,286046999.8,N
1538895465.1,286046999.9,E
1538895475.0,286046999.9,N
1538895475.9,286046999.9,P
1538895495.8,286046999.9,P
1538895515.6,286047000.6,Y
1538895535.5,286046999.8,P
1538895555.3,286047002.7,P
1538895575.1,286047002.0,N
1538895595.9,286047002.2,N
